Location: Ballingbuur
(53.0000°N, 5.7667°E)
Time: 21:31:39
(UTC+00:00)

Cosmos 1689 Rocket - Pass Details

Date: 29 November 2020
Orbit: 356 x 370 km, 97.5° (Epoch: 25 January)

Event Time Altitude Azimuth Distance (km) Brightness Sun altitude
Rises 05:15:15 0° 182° (S) 2,176 6.0 -18.5°
Reaches altitude 10° 05:17:15 10° 191° (S) 1,338 4.8 -18.2°
Enters shadow 05:17:52 15° 197° (SSW) 1,091 4.3 -18.2°
